CW1892 Weather Reports


Display with metric or nautical units.
time (UTC)temp
F
wind
direction
speed
MPH
gust
MPH
rain 1hr
in
rain 24hr
in
rain mn
in
humidity
%
barometer
mb
20191014124711 49 290 0.0 0.0 0.00 0.00 0.00 60
20191014123047 49 290 0.0 0.0 0.00 0.00 0.00 61
20191014121551 49 290 0.0 0.0 0.00 0.00 0.00 60
20191014120106 50 290 0.0 0.0 0.00 0.00 0.00 59
20191014114600 50 290 0.0 0.0 0.00 0.00 0.00 59
20191014113049 50 290 0.0 0.0 0.00 0.00 0.00 58
20191014111537 50 290 0.0 0.0 0.00 0.00 0.00 56
20191014110027 50 290 0.0 0.0 0.00 0.00 0.00 54
20191014104527 51 290 0.0 0.0 0.00 0.00 0.00 53
20191014103011 51 290 0.0 0.0 0.00 0.00 0.00 50
20191014101503 51 290 0.0 0.0 0.00 0.00 0.00 49
20191014100223 52 290 0.0 0.0 0.00 0.00 0.00 49
20191014094808 53 290 0.0 0.0 0.00 0.00 0.00 49
20191014093130 53 290 0.0 0.0 0.00 0.00 0.00 48
20191014091648 54 290 0.0 0.0 0.00 0.00 0.00 50
20191014090146 55 290 0.0 0.0 0.00 0.00 0.00 49
20191014084616 55 290 0.0 0.0 0.00 0.00 0.00 48
20191014083049 55 290 0.0 0.0 0.00 0.00 0.00 48
20191014081529 56 290 0.0 0.0 0.00 0.00 0.00 49
20191014080056 56 290 0.0 0.0 0.00 0.00 0.00 46
20191014074521 56 290 0.0 0.0 0.00 0.00 0.00 46
20191014073021 57 290 0.0 0.0 0.00 0.00 0.00 44
20191014071520 56 290 0.0 0.0 0.00 0.00 0.00 44
20191014070015 57 290 0.0 0.0 0.00 0.00 0.00 41
20191014064923 58 290 0.0 0.0 0.00 0.00 0.00 42
20191014063203 59 290 0.0 0.0 0.00 0.00 0.00 38
20191014061644 60 290 0.0 0.0 0.00 0.00 0.00 36
20191014060109 60 290 0.0 0.0 0.00 0.00 0.00 34
20191014054609 61 290 0.0 0.0 0.00 0.00 0.00 34
20191014053157 61 290 0.0 1.0 0.00 0.00 0.00 35
20191014051612 62 290 0.0 1.0 0.00 0.00 0.00 37
20191014050055 62 290 0.0 3.0 0.00 0.00 0.00 38
20191014044550 63 290 0.0 0.0 0.00 0.00 0.00 40
20191014043050 64 290 0.0 0.0 0.00 0.00 0.00 40
20191014041617 65 290 0.0 3.0 0.00 0.00 0.00 38
20191014040021 66 290 0.0 6.0 0.00 0.00 0.00 36
20191014034528 67 290 2.0 7.0 0.00 0.00 0.00 35
20191014033027 68 292 2.0 6.0 0.00 0.00 0.00 33
20191014031635 68 294 1.0 6.0 0.00 0.00 0.00 34
20191014030136 68 296 0.0 4.0 0.00 0.00 0.00 34
20191014024654 68 296 0.0 5.0 0.00 0.00 0.00 34
20191014023122 69 329 1.0 6.0 0.00 0.00 0.00 35
20191014021633 70 340 0.0 1.0 0.00 0.00 0.00 37
20191014020120 71 340 0.0 0.0 0.00 0.00 0.00 35
20191014014551 73 340 0.0 0.0 0.00 0.00 0.00 35
20191014013109 74 340 0.0 0.0 0.00 0.00 0.00 33
20191014011538 76 340 0.0 1.0 0.00 0.00 0.00 31
20191014010038 76 338 0.0 2.0 0.00 0.00 0.00 29
20191014004548 77 338 1.0 5.0 0.00 0.00 0.00 28
20191014003020 77 338 0.0 3.0 0.00 0.00 0.00 28
20191014001509 78 338 0.0 8.0 0.00 0.00 0.00 28
20191014000005 79 339 1.0 5.0 0.00 0.00 0.00 28
20191013234829 79 338 0.0 6.0 0.00 0.00 0.00 28
20191013233238 79 339 0.0 4.0 0.00 0.00 0.00 28
20191013231623 78 338 0.0 6.0 0.00 0.00 0.00 29
20191013230134 78 337 1.0 6.0 0.00 0.00 0.00 29
20191013224643 78 333 0.0 5.0 0.00 0.00 0.00 28
20191013223127 77 332 0.0 7.0 0.00 0.00 0.00 30
20191013221642 77 338 1.0 6.0 0.00 0.00 0.00 30
20191013220114 77 338 0.0 6.0 0.00 0.00 0.00 30
20191013214538 76 334 0.0 8.0 0.00 0.00 0.00 32
20191013213038 77 337 0.0 6.0 0.00 0.00 0.00 32
20191013211526 76 318 2.0 8.0 0.00 0.00 0.00 32
20191013210023 75 360 0.0 7.0 0.00 0.00 0.00 33
20191013204508 75 360 1.0 7.0 0.00 0.00 0.00 32
20191013203154 74 349 1.0 7.0 0.00 0.00 0.00 33
20191013201710 74 347 0.0 5.0 0.00 0.00 0.00 33
20191013200217 73 326 0.0 5.0 0.00 0.00 0.00 35
20191013194749 72 323 0.0 5.0 0.00 0.00 0.00 35
20191013193155 72 322 0.0 5.0 0.00 0.00 0.00 35
20191013191852 70 317 0.0 1.0 0.00 0.00 0.00 37
20191013190107 69 317 0.0 2.0 0.00 0.00 0.00 38
20191013184550 68 317 0.0 4.0 0.00 0.00 0.00 37
20191013183122 67 317 0.0 5.0 0.00 0.00 0.00 42
20191013181539 65 317 0.0 1.0 0.00 0.00 0.00 42
20191013180022 64 317 0.0 1.0 0.00 0.00 0.00 47
20191013174519 63 317 0.0 5.0 0.00 0.00 0.00 50
20191013173014 62 320 1.0 5.0 0.00 0.00 0.00 53
20191013171528 61 320 2.0 6.0 0.00 0.00 0.00 59
20191013170227 60 325 1.0 7.0 0.00 0.00 0.00 62
20191013164709 60 329 1.0 5.0 0.00 0.00 0.00 61
20191013163129 59 329 0.0 0.0 0.00 0.00 0.00 59
20191013161627 58 329 0.0 0.0 0.00 0.00 0.00 58
20191013160204 57 329 0.0 0.0 0.00 0.00 0.00 57
20191013154553 55 329 0.0 0.0 0.00 0.00 0.00 60
20191013153055 54 329 0.0 0.0 0.00 0.00 0.00 62
20191013141629 51 329 0.0 0.0 0.00 0.00 0.00 63
20191013133016 50 329 0.0 0.0 0.00 0.00 0.00 64
20191013131512 50 329 0.0 0.0 0.00 0.00 0.00 63
20191013130025 51 329 0.0 0.0 0.00 0.00 0.00 62